Weather History for Douglas, WY

Change the Weather History Date:

Thursday, November 1, 2012

  Actual Average Record
Temperature  
Mean Temperature 49 °F 40 °F  
Max Temperature 67 °F 55 °F 73 °F (2008)
Min Temperature 31 °F 25 °F 6 °F (2006)
Degree Days  
Heating Degree Days 16 25  
Month to date heating degree days 16 25  
Since 1 July heating degree days 786 892  
Cooling Degree Days 0 0  
Month to date cooling degree days 0 0  
Year to date cooling degree days 831 486  
Moisture  
Dew Point 28 °F    
Average Humidity 56    
Maximum Humidity 92    
Minimum Humidity 19    
Precipitation  
Precipitation 0.00 in 0.03 in 0.39 in (2011)
Month to date precipitation 0.00 0.03  
Year to date precipitation 5.19 12.37  
Sea Level Pressure  
Sea Level Pressure 29.90 in    
Wind  
Wind Speed 6 mph (SW)    
Max Wind Speed 18 mph    
Max Gust Speed 24 mph    
Visibility 10 miles    
Events      
T = Trace of Precipitation, MM = Missing Value Source: NWS Daily Summary

Daily Weather History Graph

Daily Weather History Graph

Search for Another Location

Airport:

Trip Planner

Search our weather history database for the weather conditions in past years. The results will help you decide how hot, cold, wet, or windy it might be!

Date:

Astronomy

Nov. 01, 2012 Rise Set
Actual Time 7:36 AM MDT 5:53 PM MDT
Civil Twilight 7:06 AM MDT 6:22 PM MDT
Nautical Twilight 6:33 AM MDT 6:56 PM MDT
Astronomical Twilight 6:00 AM MDT 7:28 PM MDT
Moon 7:49 PM MDT (11/1) 10:14 AM MDT (11/1)
Length of Visible Light 11h 15m
Length of Day
10h 16m
Waning Gibbous, 92% of the Moon is Illuminated
Nov 1
Waning Gibbous
Nov 6
Last Quarter
Nov 13
New
Nov 20
First Quarter
Nov 28
Full

Hourly Weather History & Observations

Time (MDT) Temp. Windchill Dew Point Humidity Pressure Visibility Wind Dir Wind Speed Gust Speed Precip Events Conditions
12:53 AM 37.0 °F 34.5 °F 30.9 °F 79% 30.01 in 10.0 mi South 3.5 mph - N/A   Clear
1:53 AM 36.0 °F - 30.0 °F 79% 29.99 in 10.0 mi Calm Calm - N/A   Clear
2:53 AM 34.0 °F - 28.9 °F 82% 29.99 in 10.0 mi Calm Calm - N/A   Clear
3:53 AM 34.0 °F - 28.9 °F 82% 29.96 in 10.0 mi Calm Calm - N/A   Clear
5:53 AM 34.0 °F - 28.9 °F 82% 29.96 in 10.0 mi Calm Calm - N/A   Clear
6:53 AM 33.1 °F 30.0 °F 30.0 °F 89% 29.99 in 10.0 mi East 3.5 mph - N/A   Clear
8:53 AM 35.1 °F 32.2 °F 32.0 °F 89% 30.00 in 10.0 mi Variable 3.5 mph - N/A   Clear
9:53 AM 39.9 °F 35.8 °F 34.0 °F 79% 29.98 in 10.0 mi South 5.8 mph - N/A   Clear
10:53 AM 44.1 °F 41.5 °F 36.0 °F 73% 29.95 in - SSE 4.6 mph - N/A   Clear
11:53 AM 52.0 °F - 37.0 °F 57% 29.92 in 10.0 mi Calm Calm - N/A   Clear
12:53 PM 57.9 °F - 34.0 °F 41% 29.87 in 10.0 mi Calm Calm - N/A   Clear
1:53 PM 66.0 °F - 27.0 °F 23% 29.83 in 10.0 mi WSW 12.7 mph - N/A   Clear
2:53 PM 64.9 °F - 21.9 °F 19% 29.81 in 10.0 mi West 17.3 mph 23.0 mph N/A   Clear
3:53 PM 64.0 °F - 21.9 °F 20% 29.82 in 10.0 mi West 13.8 mph - N/A   Clear
4:53 PM 63.0 °F - 25.0 °F 24% 29.82 in 10.0 mi SW 9.2 mph - N/A   Clear
5:53 PM 57.9 °F - 24.1 °F 27% 29.84 in 10.0 mi WSW 6.9 mph - N/A   Clear
6:53 PM 57.0 °F - 25.0 °F 29% 29.86 in 10.0 mi SW 8.1 mph - N/A   Clear
7:53 PM 57.9 °F - 25.0 °F 28% 29.86 in 10.0 mi SW 11.5 mph - N/A   Clear
8:53 PM 57.9 °F - 21.0 °F 24% 29.84 in 10.0 mi WSW 15.0 mph - N/A   Clear
9:53 PM 57.9 °F - 19.9 °F 23% 29.83 in 10.0 mi WSW 13.8 mph - N/A   Clear
10:53 PM 53.1 °F - 21.9 °F 30% 29.84 in 10.0 mi WNW 3.5 mph - N/A   Mostly Cloudy
11:53 PM 50.0 °F - 21.9 °F 33% 29.83 in 10.0 mi West 4.6 mph - N/A   Partly Cloudy